User: anonymous   Login
Location: Cosy Dell
(34.2789°N, 117.4537°W)
Time: 02:17:31
(UTC+00:00)
Language:

Cosmos 841 Rocket - Orbit

View from above orbital plane
View from above orbital plane
View from above satellite
View from above satellite

Ground track
Ground track

The orbit data is extracted from the following two-line orbital elements,

1  9023U 76069B   20272.46651133 -.00000013 +00000-0 +43436-5 0  9994
2  9023 074.0443 043.1841 0018639 272.5026 087.3995 14.39660055317113
Epoch (UTC): 28 September 2020 11:11:46
Eccentricity: 0.0018639
inclination: 74.0443°
perigee height: 746 km
apogee height: 773 km
right ascension of ascending node: 43.1841°
argument of perigee: 272.5026°
revolutions per day: 14.39660055
mean anomaly at epoch: 87.3995°
orbit number at epoch: 31711

The dashed part of the orbit path shows where the satellite is in the earth's shadow,  

DLR